Weather reports worldwide

Advertisment
Redesdale Camp, United Kingdom (3230): temperature & dewpoint: 04.12.2018 14:00:00 - 10.12.2018 14:00:00 (GMT)Redesdale Camp, United Kingdom (3230): temperature -20cm & temperature -100cm: 04.12.2018 14:00:00 - 10.12.2018 14:00:00 (GMT)Redesdale Camp, United Kingdom (3230): wind speed & gusts: 04.12.2018 14:00:00 - 10.12.2018 14:00:00 (GMT)Redesdale Camp, United Kingdom (3230): wind direction: 04.12.2018 14:00:00 - 10.12.2018 14:00:00 (GMT)Redesdale Camp, United Kingdom (3230): reduced air pressure: 04.12.2018 14:00:00 - 10.12.2018 14:00:00 (GMT)Redesdale Camp, United Kingdom (3230): visibility: 04.12.2018 14:00:00 - 10.12.2018 14:00:00 (GMT)Redesdale Camp, United Kingdom (3230): precipitation: 04.12.2018 14:00:00 - 10.12.2018 14:00:00 (GMT)
Date & Time tt [°C] td [°C] tt -20cm [°C] tt -100cm [°C] ff [km/h] ff [kn] fx [km/h] fx [kn] dd ppp [hPa] vv [km] rr [mm]
10.12.2018 14:00:00 4,3 0,9 - - 4 2 - - N 1026,7 50 0,0
10.12.2018 13:00:00 4,4 1,3 - - 4 2 - - NNW 1026,5 50 0,0
10.12.2018 12:00:00 3,2 0,9 - - 4 2 - - S 1026,4 45 0,2
10.12.2018 11:00:00 2,5 2,2 - - 2 1 - - W 1026,4 45 0,0
10.12.2018 10:00:00 -0,3 -0,6 - - 2 1 - - WSW 1026,3 35 0,0
10.12.2018 09:00:00 -1,1 -1,6 5,7 7,4 4 2 - - NW 1025,5 50 0,0
10.12.2018 08:00:00 -0,5 -0,8 - - 8 4 - - NNW 1024,8 45 0,0
10.12.2018 07:00:00 -1,4 -1,8 - - 5 3 - - NNW 1024,4 40 0,0
10.12.2018 06:00:00 -1,7 -2,0 - - 5 3 - - NNW 1024,0 40 0,0
10.12.2018 05:00:00 -1,1 -1,4 - - 4 2 - - NNE 1023,5 40 0,0
10.12.2018 04:00:00 -1,7 -2,3 - - 4 2 - - SE 1023,0 40 0,0
10.12.2018 03:00:00 -0,5 -0,9 - - 4 2 - - N 1022,4 45 0,0
10.12.2018 02:00:00 0,5 -0,1 - - 4 2 - - WNW 1021,4 45 0,0
10.12.2018 01:00:00 -0,4 -0,8 - - 4 2 - - WSW 1020,7 45 0,0
10.12.2018 00:00:00 -0,1 -0,9 - - 4 2 - - SSW 1020,1 45 0,0
09.12.2018 23:00:00 -0,4 -1,0 - - 2 1 - - E 1019,5 40 0,0
09.12.2018 22:00:00 -0,4 -1,1 - - 4 2 - - E 1019,0 45 0,0
09.12.2018 21:00:00 0,8 0,2 - - 4 2 - - W 1018,2 45 0,0
09.12.2018 20:00:00 1,1 0,0 - - 2 1 - - W 1017,4 40 0,0
09.12.2018 19:00:00 2,4 0,4 - - 2 1 - - NNW 1016,4 45 0,0
09.12.2018 18:00:00 2,7 0,7 - - 2 1 - - WNW 1015,5 40 0,0
09.12.2018 17:00:00 3,0 0,7 - - 9 5 - - NW 1014,5 40 0,0
09.12.2018 16:00:00 3,7 0,7 - - 5 3 - - WNW 1013,3 45 0,0
09.12.2018 15:00:00 5,3 1,5 - - 5 3 - - W 1012,1 45 0,0
09.12.2018 14:00:00 5,8 1,3 - - 8 4 - - WNW 1010,6 50 0,0
09.12.2018 13:00:00 5,8 1,2 - - 9 5 - - NW 1009,3 50 0,0
09.12.2018 12:00:00 5,3 1,1 - - 11 6 - - NW 1008,4 45 0,0
09.12.2018 11:00:00 4,5 0,9 - - 11 6 - - NW 1007,1 50 0,0
09.12.2018 10:00:00 3,6 0,5 - - 13 7 - - NNW 1005,7 50 0,0
09.12.2018 09:00:00 2,9 0,3 6,2 7,4 13 7 - - NW 1003,8 50 0,0
09.12.2018 08:00:00 2,9 1,1 - - 13 7 - - NW 1001,8 50 0,0
09.12.2018 07:00:00 3,0 1,4 - - 11 6 - - NW 1000,1 50 0,0
09.12.2018 06:00:00 3,3 1,9 - - 11 6 - - NW 998,2 50 0,0
09.12.2018 05:00:00 3,6 2,4 - - 9 5 - - NW 996,3 50 0,0
09.12.2018 04:00:00 3,9 2,8 - - 8 4 - - NW 994,6 45 0,0
09.12.2018 03:00:00 4,3 3,5 - - 5 3 - - NW 993,5 50 0,0
09.12.2018 02:00:00 3,3 2,8 - - 4 2 - - W 992,3 45 0,0
09.12.2018 01:00:00 4,0 2,8 - - 2 1 - - SSW 991,3 50 0,0
09.12.2018 00:00:00 4,0 2,9 - - 4 2 - - S 990,6 50 0,0
08.12.2018 23:00:00 4,2 3,6 - - 4 2 - - NW 989,9 50 0,0
08.12.2018 22:00:00 5,0 4,3 - - 5 3 - - WNW 989,1 45 0,0
08.12.2018 21:00:00 5,4 4,7 - - 4 2 - - WNW 988,6 30 0,0
08.12.2018 20:00:00 5,1 4,2 - - 5 3 - - N 988,2 40 0,2
08.12.2018 19:00:00 5,1 4,4 - - 5 3 - - W 987,9 25 0,2
08.12.2018 18:00:00 4,6 4,0 - - 5 3 - - W 988,4 35 0,0
08.12.2018 17:00:00 4,4 3,7 - - 4 2 - - SW 988,5 45 0,0
08.12.2018 16:00:00 4,5 3,7 - - 11 6 - - WSW 989,1 23 0,0
08.12.2018 15:00:00 4,8 3,6 - - 22 12 46 25 SW 989,5 24 0,8
08.12.2018 14:00:00 6,6 4,9 - - 18 10 - - WSW 990,9 16 0,0
08.12.2018 13:00:00 7,1 4,8 - - 21 11 - - WSW 991,4 30 0,0
08.12.2018 12:00:00 6,8 4,5 - - 16 9 - - WSW 992,2 27 0,0
08.12.2018 11:00:00 6,7 3,8 - - 21 11 - - WSW 992,4 30 0,0
08.12.2018 10:00:00 6,5 5,0 - - 16 9 - - WSW 992,2 25 0,4
08.12.2018 09:00:00 7,0 4,9 6,2 7,5 15 8 - - WSW 991,8 13 0,0
08.12.2018 08:00:00 7,4 4,6 - - 15 8 - - WSW 991,0 35 0,0
08.12.2018 07:00:00 7,8 4,5 - - 16 9 46 25 W 990,0 15 0,0
08.12.2018 06:00:00 7,8 4,2 - - 21 11 52 28 WSW 989,1 40 0,0
08.12.2018 05:00:00 7,3 4,6 - - 21 11 50 27 WSW 988,5 40 0,2
08.12.2018 04:00:00 7,4 4,2 - - 21 11 52 28 WSW 987,6 45 0,0
08.12.2018 03:00:00 7,3 4,8 - - 21 11 46 25 WSW 986,8 35 0,0
08.12.2018 02:00:00 6,9 5,8 - - 15 8 50 27 WSW 986,2 35 0,4
08.12.2018 01:00:00 6,7 5,8 - - 26 14 59 32 WSW 985,5 7 0,6
08.12.2018 00:00:00 6,5 5,4 - - 34 18 65 35 SW 985,7 7 0,2
07.12.2018 23:00:00 6,4 5,0 - - 34 18 67 36 SW 986,0 4,4 0,0
07.12.2018 22:00:00 6,1 4,1 - - 31 17 72 39 SW 986,4 16 0,0
07.12.2018 21:00:00 5,9 3,8 - - 35 19 76 41 SW 986,8 6 0,0
07.12.2018 20:00:00 5,5 4,0 - - 42 23 74 40 SW 986,7 3,0 0,2
07.12.2018 19:00:00 5,0 3,4 - - 37 20 63 34 SW 987,9 6 0,2
07.12.2018 18:00:00 5,1 2,3 - - 35 19 63 34 SW 988,5 4,5 0,0
07.12.2018 17:00:00 4,7 2,0 - - 31 17 57 31 SW 989,0 18 0,0
07.12.2018 16:00:00 4,7 1,6 - - 24 13 54 29 WSW 990,0 26 0,0
07.12.2018 15:00:00 4,7 1,5 - - 24 13 52 28 SW 989,9 11 0,0
07.12.2018 14:00:00 4,9 1,6 - - 28 15 50 27 SW 990,1 11 0,0
07.12.2018 13:00:00 5,3 2,0 - - 28 15 50 27 WSW 990,2 20 0,0
07.12.2018 12:00:00 5,3 2,4 - - 28 15 54 29 SW 991,0 16 0,0
07.12.2018 11:00:00 5,3 2,6 - - 28 15 54 29 SW 991,0 21 0,0
07.12.2018 10:00:00 5,5 3,0 - - 28 15 46 25 SW 990,8 14 0,0
07.12.2018 09:00:00 5,9 3,5 6,0 7,5 24 13 46 25 SW 991,5 11 0,0
07.12.2018 08:00:00 7,3 5,2 - - 21 11 - - SW 991,1 24 0,0
07.12.2018 07:00:00 8,6 7,2 - - 22 12 52 28 SW 990,4 23 0,0
07.12.2018 06:00:00 10,2 9,1 - - 22 12 - - SW 990,7 23 2,0
07.12.2018 05:00:00 9,8 9,7 - - 13 7 - - SSW 991,3 4,8 1,8
07.12.2018 04:00:00 8,0 8,0 - - 11 6 - - SSE 993,7 5 3,2
07.12.2018 03:00:00 7,5 7,4 - - 15 8 - - SE 995,9 3,9 0,6
07.12.2018 02:00:00 6,3 5,8 - - 5 3 - - SE 998,3 12 0,2
07.12.2018 01:00:00 5,9 5,3 - - 2 1 - - SSE 1000,8 19 0,0
07.12.2018 00:00:00 5,9 5,6 - - 4 2 65 35 ENE 1002,3 17 0,0
06.12.2018 23:00:00 6,0 5,7 - - 8 4 - - SE 1003,8 13 0,0
06.12.2018 22:00:00 4,9 4,6 - - 4 2 - - ESE 1004,5 18 0,0
06.12.2018 21:00:00 4,4 3,7 - - 8 4 - - SSE 1005,3 18 0,0
06.12.2018 20:00:00 6,4 4,9 - - 5 3 - - SSE 1005,5 21 0,0
06.12.2018 19:00:00 8,3 6,6 - - 11 6 - - W 1004,5 30 0,0
06.12.2018 18:00:00 7,6 6,8 - - 8 4 - - NW 1004,6 29 0,0
06.12.2018 17:00:00 8,3 6,7 - - 8 4 - - NNW 1003,7 35 0,0
06.12.2018 16:00:00 9,6 8,1 - - 8 4 - - WNW 1003,5 45 0,0
06.12.2018 15:00:00 10,7 9,8 - - 9 5 - - WSW 1003,0 17 0,0
06.12.2018 14:00:00 10,6 9,9 - - 15 8 - - WSW 1002,5 14 0,0
06.12.2018 13:00:00 10,5 9,9 - - 26 14 46 25 SW 1002,5 3,8 0,2
06.12.2018 12:00:00 10,2 9,6 - - 29 16 50 27 SW 1003,0 2,2 0,2
06.12.2018 11:00:00 9,9 9,1 - - 29 16 54 29 SW 1003,2 3,0 0,0
06.12.2018 10:00:00 9,5 8,9 - - 18 10 - - SW 1003,7 6 0,2
06.12.2018 09:00:00 8,5 8,3 5,7 7,7 15 8 - - SSW 1004,1 14 0,0
06.12.2018 08:00:00 7,8 7,7 - - 11 6 - - S 1005,4 14 0,0
06.12.2018 07:00:00 6,2 6,0 - - 5 3 - - E 1006,1 22 0,0
06.12.2018 06:00:00 6,1 5,7 - - 4 2 - - ESE 1006,8 11 0,0
06.12.2018 05:00:00 6,0 5,7 - - 4 2 - - S 1007,4 50 0,0
06.12.2018 04:00:00 5,6 5,4 - - 4 2 - - NW 1007,9 45 0,0
06.12.2018 03:00:00 5,2 5,1 - - 8 4 - - WSW 1007,5 40 0,0
06.12.2018 02:00:00 4,5 4,5 - - 4 2 - - W 1008,4 35 0,0
06.12.2018 01:00:00 3,7 3,7 - - 5 3 - - NNW 1008,1 50 0,0
06.12.2018 00:00:00 3,9 3,8 - - 5 3 - - WSW 1008,1 0,4 0,0
05.12.2018 23:00:00 3,9 3,9 - - 2 1 - - WNW 1007,5 20 0,0
05.12.2018 22:00:00 3,2 3,0 - - 5 3 - - W 1007,2 12 0,0
05.12.2018 21:00:00 4,1 4,0 - - 5 3 - - NNW 1007,3 30 0,0
05.12.2018 20:00:00 3,6 3,4 - - 4 2 - - W 1007,7 10 0,0
05.12.2018 19:00:00 3,8 3,7 - - 4 2 - - WNW 1007,4 20 0,0
05.12.2018 18:00:00 4,2 4,0 - - 4 2 - - NW 1007,2 14 0,2
05.12.2018 17:00:00 4,3 4,0 - - 5 3 - - NE 1007,2 2,8 0,2
05.12.2018 16:00:00 4,5 4,2 - - 8 4 - - ENE 1007,6 24 0,6
05.12.2018 15:00:00 4,6 4,3 - - 15 8 - - E 1008,2 13 0,8
05.12.2018 14:00:00 4,2 4,0 - - 18 10 - - E 1009,3 9 0,8
05.12.2018 13:00:00 3,5 3,3 - - 15 8 - - E 1010,9 7 1,0
05.12.2018 12:00:00 2,7 2,7 - - 24 13 - - E 1012,3 10 0,8
05.12.2018 11:00:00 1,0 1,0 - - 5 3 - - S 1014,1 6 0,0
05.12.2018 10:00:00 0,4 0,3 - - 8 4 - - SE 1015,1 4,9 0,0
05.12.2018 09:00:00 -1,2 -1,3 5,7 7,9 2 1 - - S 1015,9 10 0,0
05.12.2018 08:00:00 -2,7 -2,9 - - 2 1 - - NE 1016,9 24 0,0
05.12.2018 07:00:00 -4,1 -4,4 - - 0 0 - - N 1017,3 30 0,0
05.12.2018 06:00:00 -4,5 -4,8 - - 4 2 - - NNW 1018,2 26 0,0
05.12.2018 05:00:00 -4,3 -4,7 - - 2 1 - - NNW 1018,9 19 0,0
05.12.2018 04:00:00 -3,4 -3,7 - - 0 0 - - N 1019,6 1,7 0,0
05.12.2018 03:00:00 -2,8 -3,0 - - 0 0 - - N 1020,1 0,4 0,0
05.12.2018 02:00:00 -2,4 -2,5 - - 2 1 - - NNW 1020,7 1,0 0,0
05.12.2018 01:00:00 -2,7 -2,8 - - 5 3 - - NNW 1021,2 0,6 0,0
05.12.2018 00:00:00 -4,0 -4,4 - - 4 2 - - NE 1021,5 2,4 0,0
04.12.2018 23:00:00 -3,2 -3,6 - - 11 6 - - N 1021,7 35 0,0
04.12.2018 22:00:00 -1,6 -1,7 - - 4 2 - - N 1021,5 13 0,0
04.12.2018 21:00:00 -2,2 -2,9 - - 5 3 - - SE 1021,4 21 0,0
04.12.2018 20:00:00 -0,7 -1,2 - - 4 2 - - NW 1021,2 30 0,0
04.12.2018 19:00:00 -0,3 -0,8 - - 4 2 - - W 1021,1 18 0,0
04.12.2018 18:00:00 0,6 0,2 - - 8 4 - - NW 1020,9 30 0,0
04.12.2018 17:00:00 0,6 0,2 - - 4 2 - - W 1020,7 30 0,0
04.12.2018 16:00:00 1,0 0,4 - - 4 2 - - SSW 1020,6 21 0,0
04.12.2018 15:00:00 1,8 0,9 - - 5 3 - - SW 1019,9 30 0,0
04.12.2018 14:00:00 2,2 1,3 - - 2 1 - - SSW 1019,7 28 0,0

tt = temperature
td = dewpoint
tt -20cm = temperature -20cm
tt -100cm = temperature -100cm
ff = wind speed
fx = gusts
dd = wind direction
ppp = reduced air pressure
vv = visibility
rr = precipitation

Next stations